Location: Gro�sch�nbrunn
(49.5760°N, 11.8868°E)
Time: 16:13:42
(UTC+00:00)

Cosmos 1025 Rocket - Pass Details

Date: 18 September 2020
Orbit: 594 x 617 km, 82.5° (Epoch: 30 October)

Event Time Altitude Azimuth Distance (km) Brightness Sun altitude
Rises 18:45:17 0° 350° (N) 2,886 6.9 -14.6°
Reaches altitude 10° 18:47:31 10° 351° (N) 1,980 6.0 -14.9°
Maximum altitude 18:51:54 86° 80° (E) 623 3.0 -15.6°
Enters shadow 18:56:10 11° 170° (S) 1,923 5.3 -16.2°
